| time (UTC) | temp C | wind direction | speed KPH | gust KPH | rain 1hr cm | rain 24hr cm | rain mn cm | humidity % | barometer mb |
| 20260507072558 | 3 | 194 | 0.0 | 6.4 | 0.13 | 0.61 | 0.61 | 91 | 1012.0 |
| 20260507071055 | 3 | 198 | 0.0 | 3.2 | 0.15 | 0.58 | 0.58 | 90 | 1011.9 |
| 20260507065550 | 3 | 191 | 0.0 | 9.7 | 0.15 | 0.56 | 0.56 | 90 | 1011.7 |
| 20260507064030 | 3 | 196 | 4.8 | 11.3 | 0.13 | 0.51 | 0.51 | 90 | 1011.6 |
| 20260507062528 | 4 | 191 | 0.0 | 9.7 | 0.13 | 0.48 | 0.48 | 91 | 1011.4 |
| 20260507061024 | 4 | 200 | 0.0 | 0.0 | 0.10 | 0.43 | 0.43 | 91 | 1011.3 |
| 20260507055526 | 4 | 200 | 0.0 | 0.0 | 0.13 | 0.41 | 0.41 | 90 | 1011.2 |
| 20260507054044 | 4 | 200 | 0.0 | 0.0 | 0.10 | 0.38 | 0.38 | 90 | 1011.2 |
| 20260507052521 | 4 | 200 | 0.0 | 0.0 | 0.10 | 0.36 | 0.36 | 90 | 1011.2 |
| 20260507051038 | 4 | 200 | 0.0 | 8.0 | 0.15 | 0.33 | 0.33 | 89 | 1011.1 |
| 20260507045539 | 4 | 186 | 0.0 | 6.4 | 0.15 | 0.28 | 0.28 | 89 | 1011.0 |
| 20260507044037 | 4 | 171 | 0.0 | 1.6 | 0.15 | 0.28 | 0.28 | 88 | 1010.9 |
| 20260507042536 | 4 | 198 | 0.0 | 11.3 | 0.20 | 0.28 | 0.28 | 87 | 1011.2 |
| 20260507041103 | 4 | 190 | 8.0 | 17.7 | 0.10 | 0.18 | 0.18 | 84 | 1011.2 |
| 20260507035536 | 5 | 198 | 9.7 | 19.3 | 0.05 | 0.13 | 0.13 | 82 | 1010.7 |
| 20260507034034 | 6 | 197 | 0.0 | 12.9 | 0.08 | 0.13 | 0.13 | 81 | 1010.5 |
| 20260507032552 | 6 | 196 | 0.0 | 0.0 | 0.03 | 0.08 | 0.08 | 83 | 1010.1 |
| 20260507031031 | 6 | 196 | 0.0 | 0.0 | 0.05 | 0.08 | 0.08 | 81 | 1010.0 |
| 20260507025527 | 6 | 196 | 0.0 | 8.0 | 0.05 | 0.08 | 0.08 | 78 | 1010.0 |
| 20260507024026 | 7 | 196 | 3.2 | 11.3 | 0.03 | 0.05 | 0.05 | 75 | 1009.7 |
| 20260507022547 | 7 | 180 | 6.4 | 17.7 | 0.05 | 0.05 | 0.05 | 75 | 1009.7 |
| 20260507021023 | 7 | 208 | 6.4 | 16.1 | 0.03 | 0.03 | 0.03 | 73 | 1009.6 |
| 20260507015519 | 7 | 189 | 0.0 | 0.0 | 0.03 | 0.03 | 0.03 | 77 | 1009.6 |
| 20260507014037 | 7 | 189 | 0.0 | 11.3 | 0.03 | 0.03 | 0.03 | 76 | 1009.6 |
| 20260507012541 | 7 | 205 | 0.0 | 3.2 | 0.00 | 0.00 | 0.00 | 75 | 1009.6 |
| 20260507011037 | 7 | 208 | 3.2 | 12.9 | 0.00 | 0.00 | 0.00 | 71 | 1009.6 |
| 20260507005533 | 7 | 264 | 0.0 | 8.0 | 0.00 | 0.00 | 0.00 | 66 | 1009.6 |
| 20260507004035 | 7 | 288 | 0.0 | 6.4 | 0.00 | 0.00 | 0.00 | 69 | 1009.5 |
| 20260507002553 | 7 | 216 | 0.0 | 9.7 | 0.00 | 0.00 | 0.00 | 69 | 1009.3 |
| 20260507001029 | 8 | 177 | 3.2 | 9.7 | 0.00 | 0.00 | 0.00 | 68 | 1009.2 |
| 20260506235546 | 8 | 117 | 0.0 | 6.4 | 0.00 | 0.00 | 0.00 | 70 | 1009.1 |
| 20260506234027 | 8 | 285 | 0.0 | 6.4 | 0.00 | 0.00 | 0.00 | 69 | 1009.1 |
| 20260506232524 | 8 | 286 | 0.0 | 1.6 | 0.00 | 0.00 | 0.00 | 69 | 1009.1 |
| 20260506231021 | 8 | 273 | 0.0 | 8.0 | 0.00 | 0.00 | 0.00 | 69 | 1009.0 |
| 20260506225522 | 8 | 277 | 1.6 | 8.0 | 0.00 | 0.00 | 0.00 | 64 | 1008.9 |
| 20260506224040 | 8 | 207 | 0.0 | 9.7 | 0.00 | 0.00 | 0.00 | 63 | 1008.7 |
| 20260506222538 | 7 | 236 | 4.8 | 11.3 | 0.00 | 0.00 | 0.00 | 63 | 1008.7 |
| 20260506221035 | 7 | 198 | 8.0 | 14.5 | 0.00 | 0.00 | 0.00 | 61 | 1008.6 |
| 20260506215534 | 8 | 219 | 9.7 | 16.1 | 0.00 | 0.00 | 0.00 | 60 | 1008.3 |
| 20260506214032 | 9 | 195 | 4.8 | 9.7 | 0.00 | 0.00 | 0.00 | 58 | 1008.1 |
| 20260506212550 | 9 | 201 | 0.0 | 6.4 | 0.00 | 0.00 | 0.00 | 57 | 1008.1 |
| 20260506211026 | 9 | 345 | 0.0 | 8.0 | 0.00 | 0.00 | 0.00 | 58 | 1008.0 |
| 20260506205546 | 9 | 330 | 0.0 | 3.2 | 0.00 | 0.00 | 0.00 | 60 | 1007.9 |
| 20260506204025 | 9 | 276 | 0.0 | 4.8 | 0.00 | 0.00 | 0.00 | 62 | 1007.9 |
| 20260506202523 | 8 | 325 | 0.0 | 6.4 | 0.00 | 0.00 | 0.00 | 64 | 1007.7 |
| 20260506201025 | 8 | 334 | 0.0 | 6.4 | 0.00 | 0.00 | 0.00 | 65 | 1007.6 |
| 20260506195522 | 8 | 329 | 0.0 | 0.0 | 0.00 | 0.00 | 0.00 | 66 | 1007.6 |
| 20260506194021 | 7 | 330 | 0.0 | 6.4 | 0.00 | 0.00 | 0.00 | 66 | 1007.6 |
| 20260506192523 | 7 | 339 | 0.0 | 6.4 | 0.00 | 0.00 | 0.00 | 67 | 1007.6 |
| 20260506191020 | 7 | 278 | 0.0 | 8.0 | 0.00 | 0.00 | 0.00 | 66 | 1007.5 |
| 20260506185558 | 7 | 316 | 0.0 | 6.4 | 0.00 | 0.00 | 0.00 | 64 | 1007.5 |
| 20260506184035 | 7 | 318 | 0.0 | 8.0 | 0.00 | 0.00 | 0.00 | 66 | 1007.5 |
| 20260506182537 | 7 | 314 | 0.0 | 0.0 | 0.00 | 0.00 | 0.00 | 66 | 1007.3 |
| 20260506181033 | 7 | 299 | 0.0 | 3.2 | 0.00 | 0.00 | 0.00 | 67 | 1007.2 |
| 20260506175532 | 6 | 307 | 0.0 | 4.8 | 0.00 | 0.00 | 0.00 | 68 | 1007.1 |
| 20260506174033 | 6 | 229 | 0.0 | 3.2 | 0.00 | 0.00 | 0.00 | 70 | 1007.1 |
| 20260506172532 | 6 | 220 | 0.0 | 0.0 | 0.00 | 0.00 | 0.00 | 71 | 1007.0 |
| 20260506171029 | 5 | 215 | 0.0 | 1.6 | 0.00 | 0.00 | 0.00 | 71 | 1007.0 |
| 20260506165526 | 5 | 190 | 0.0 | 0.0 | 0.00 | 0.00 | 0.00 | 72 | 1006.9 |
| 20260506164027 | 5 | 190 | 0.0 | 0.0 | 0.00 | 0.00 | 0.00 | 73 | 1006.8 |
| 20260506162546 | 5 | 190 | 0.0 | 0.0 | 0.00 | 0.00 | 0.00 | 75 | 1006.6 |
| 20260506161023 | 3 | 190 | 0.0 | 0.0 | 0.00 | 0.00 | 0.00 | 79 | 1006.5 |
| 20260506155521 | 3 | 190 | 0.0 | 0.0 | 0.00 | 0.00 | 0.00 | 80 | 1006.5 |
| 20260506154038 | 3 | 190 | 0.0 | 0.0 | 0.00 | 0.00 | 0.00 | 80 | 1006.5 |
| 20260506152556 | 3 | 190 | 0.0 | 0.0 | 0.00 | 0.00 | 0.00 | 80 | 1006.5 |
| 20260506151051 | 3 | 190 | 0.0 | 0.0 | 0.00 | 0.00 | 0.00 | 80 | 1006.3 |
| 20260506145550 | 3 | 190 | 0.0 | 0.0 | 0.00 | 0.00 | 0.00 | 80 | 1006.2 |
| 20260506144026 | 3 | 190 | 0.0 | 0.0 | 0.00 | 0.00 | 0.00 | 80 | 1006.1 |
| 20260506142528 | 2 | 190 | 0.0 | 0.0 | 0.00 | 0.00 | 0.00 | 80 | 1006.1 |
| 20260506141024 | 2 | 190 | 0.0 | 0.0 | 0.00 | 0.00 | 0.00 | 80 | 1006.0 |
| 20260506135524 | 2 | 190 | 0.0 | 0.0 | 0.00 | 0.00 | 0.00 | 79 | 1006.1 |
| 20260506134021 | 2 | 190 | 0.0 | 0.0 | 0.00 | 0.00 | 0.00 | 79 | 1006.0 |
| 20260506132520 | 3 | 190 | 0.0 | 0.0 | 0.00 | 0.00 | 0.00 | 78 | 1006.0 |
| 20260506131035 | 3 | 190 | 0.0 | 0.0 | 0.00 | 0.00 | 0.00 | 77 | 1006.0 |
| 20260506125556 | 3 | 190 | 0.0 | 0.0 | 0.00 | 0.00 | 0.00 | 76 | 1005.9 |
| 20260506124032 | 3 | 190 | 0.0 | 0.0 | 0.00 | 0.00 | 0.00 | 75 | 1005.9 |
| 20260506122531 | 3 | 191 | 0.0 | 0.0 | 0.00 | 0.00 | 0.00 | 76 | 1005.7 |
| 20260506121033 | 3 | 191 | 0.0 | 0.0 | 0.00 | 0.00 | 0.00 | 76 | 1005.6 |
| 20260506115530 | 4 | 191 | 0.0 | 0.0 | 0.00 | 0.00 | 0.00 | 75 | 1005.5 |
| 20260506114029 | 4 | 188 | 0.0 | 9.7 | 0.00 | 0.00 | 0.00 | 75 | 1005.5 |
| 20260506112527 | 4 | 196 | 4.8 | 9.7 | 0.00 | 0.03 | 0.00 | 75 | 1005.5 |
| 20260506111028 | 4 | 167 | 0.0 | 12.9 | 0.00 | 0.03 | 0.00 | 74 | 1005.5 |
| 20260506105525 | 4 | 192 | 0.0 | 12.9 | 0.00 | 0.03 | 0.00 | 73 | 1005.4 |
| 20260506104024 | 5 | 187 | 6.4 | 19.3 | 0.00 | 0.03 | 0.00 | 75 | 1005.3 |
| 20260506102526 | 4 | 192 | 6.4 | 16.1 | 0.00 | 0.03 | 0.00 | 72 | 1005.2 |
| 20260506101024 | 5 | 200 | 3.2 | 20.9 | 0.00 | 0.03 | 0.00 | 71 | 1005.2 |
| 20260506095520 | 5 | 192 | 6.4 | 12.9 | 0.00 | 0.03 | 0.00 | 66 | 1005.0 |
| 20260506094023 | 5 | 193 | 8.0 | 16.1 | 0.00 | 0.03 | 0.00 | 64 | 1004.9 |
| 20260506092522 | 6 | 175 | 6.4 | 22.5 | 0.00 | 0.03 | 0.00 | 60 | 1004.9 |
| 20260506091019 | 6 | 190 | 9.7 | 14.5 | 0.00 | 0.03 | 0.00 | 60 | 1004.8 |
| 20260506085556 | 6 | 193 | 0.0 | 11.3 | 0.00 | 0.03 | 0.00 | 57 | 1004.5 |
| 20260506084036 | 6 | 201 | 1.6 | 6.4 | 0.00 | 0.03 | 0.00 | 56 | 1004.4 |
| 20260506082534 | 6 | 196 | 0.0 | 1.6 | 0.00 | 0.03 | 0.00 | 54 | 1004.3 |
| 20260506081033 | 7 | 201 | 4.8 | 9.7 | 0.00 | 0.03 | 0.00 | 52 | 1004.2 |